Date String (YYYY-MM-DD hh:mm:ss) UTC,Instrument flags,Ambient pressure (hPa),Sample flow (lpm),Bypass flow (lpm),Sample temperature (°C),Ambient temperature (°C),ASC tube jacket temperature (°C),LED temperature (°C),Box temperature (°C),Sample RH (%),Span deviation,Mass concentration (μg/m³),Mass concentration (μg/m³),Mass concentration (μg/m³)
DateTimeUTC,F1_M11,P_M11,Q1_M11,Q2_M11,T1_M11,T2_M11,T3_M11,T4_M11,T5_M11,U1_M11,ZSPAN_M11,X0_M11,X2_M11,X1_M11
2022-07-15 02:00:00,,0831.3,5.00,0.00,29.2,27.4,00.0,37.9,31.0,29.3,0000.0,0009.20,0003.92,0003.46
2022-07-15 02:01:00,,0831.2,4.99,0.00,29.2,27.6,00.0,37.9,31.1,29.2,0000.0,0008.29,0003.92,0003.48
2022-07-15 02:02:00,,0831.2,5.01,0.00,29.2,27.8,00.0,38.0,31.1,29.5,0000.0,0008.49,0003.93,0003.50
2022-07-15 02:03:00,,0831.2,5.00,0.00,29.3,27.9,00.0,38.0,31.2,29.7,0000.0,0009.56,0003.97,0003.51
2022-07-15 02:04:00,,0831.3,5.00,0.00,29.3,28.1,00.0,38.0,31.3,30.0,0000.0,0009.73,0004.01,0003.54
2022-07-15 02:05:00,,0831.3,5.01,0.00,29.3,28.2,00.0,38.0,31.3,28.9,0000.0,0009.90,0004.03,0003.56
2022-07-15 02:06:00,,0831.3,5.00,0.00,29.4,28.3,00.0,38.0,31.4,29.5,0000.0,0009.92,0004.09,0003.57
2022-07-15 02:07:00,,0831.3,5.00,0.00,29.4,28.3,00.0,38.1,31.4,29.3,0000.0,0010.42,0004.14,0003.59
2022-07-15 02:08:00,,0831.3,4.99,0.00,29.4,27.8,00.0,38.0,31.3,30.3,0000.0,0010.75,0004.16,0003.62
2022-07-15 02:09:00,,0831.4,5.00,0.00,29.4,27.5,00.0,38.0,31.3,32.3,0000.0,0010.55,0004.21,0003.63
2022-07-15 02:10:00,,0831.3,5.00,0.00,29.4,27.5,00.0,38.0,31.2,32.5,0000.0,0010.57,0004.24,0003.65
2022-07-15 02:11:00,,0831.3,5.00,0.00,29.3,27.6,00.0,38.0,31.2,32.1,0000.0,0010.64,0004.26,0003.67
2022-07-15 02:12:00,,0831.2,5.00,0.00,29.3,27.7,00.0,38.0,31.2,31.8,0000.0,0010.68,0004.27,0003.68
2022-07-15 02:13:00,,0831.3,5.00,0.00,29.3,27.8,00.0,38.0,31.2,31.8,0000.0,0011.02,0004.31,0003.70
2022-07-15 02:14:00,,0831.3,5.00,0.00,29.4,28.0,00.0,38.0,31.3,32.0,0000.0,0010.44,0004.32,0003.71
2022-07-15 02:15:00,,0831.4,5.00,0.00,29.4,28.1,00.0,38.1,31.3,30.6,0000.0,0010.16,0004.33,0003.72
2022-07-15 02:16:00,,0831.3,5.00,0.00,29.4,28.3,00.0,38.1,31.4,29.3,0000.0,0009.68,0004.35,0003.72
2022-07-15 02:17:00,,0831.4,5.01,0.00,29.4,28.3,00.0,38.1,31.4,28.8,0000.0,0009.61,0004.34,0003.72
2022-07-15 02:18:00,,0831.4,5.00,0.00,29.5,27.8,00.0,38.1,31.4,28.6,0000.0,0009.20,0004.31,0003.72
2022-07-15 02:19:00,,0831.4,5.00,0.00,29.4,27.1,00.0,38.0,31.2,28.5,0000.0,0008.67,0004.30,0003.71
2022-07-15 02:20:00,,0831.5,4.99,0.00,29.3,26.9,00.0,38.0,31.1,28.5,0000.0,0008.64,0004.30,0003.71
2022-07-15 02:21:00,,0831.4,5.00,0.00,29.3,26.9,00.0,38.0,31.0,28.3,0000.0,0008.86,0004.25,0003.69
2022-07-15 02:22:00,,0831.4,5.00,0.00,29.2,27.1,00.0,38.0,31.0,27.7,0000.0,0009.55,0004.22,0003.68
2022-07-15 02:23:00,,0831.4,5.00,0.00,29.2,27.3,00.0,38.0,31.0,28.0,0000.0,0009.48,0004.21,0003.66
2022-07-15 02:24:00,,0831.4,5.01,0.00,29.2,27.5,00.0,38.0,31.1,28.0,0000.0,0009.81,0004.19,0003.65
2022-07-15 02:25:00,,0831.4,4.99,0.00,29.2,27.6,00.0,38.0,31.1,28.1,0000.0,0009.56,0004.20,0003.64
2022-07-15 02:26:00,,0831.4,5.01,0.00,29.3,27.8,00.0,38.0,31.2,28.2,0000.0,0009.47,0004.19,0003.62
2022-07-15 02:27:00,,0831.3,5.00,0.00,29.3,28.0,00.0,38.0,31.2,28.3,0000.0,0009.31,0004.18,0003.62
2022-07-15 02:28:00,,0831.4,5.00,0.00,29.3,28.1,00.0,38.0,31.3,28.8,0000.0,0009.37,0004.15,0003.61
2022-07-15 02:29:00,,0831.4,5.00,0.00,29.4,28.3,00.0,38.1,31.4,29.0,0000.0,0009.41,0004.13,0003.58
2022-07-15 02:30:00,,0831.4,5.01,0.00,29.4,28.4,00.0,38.1,31.4,29.4,0000.0,0009.36,0004.12,0003.57
2022-07-15 02:31:00,,0831.4,4.99,0.00,29.4,28.1,00.0,38.1,31.4,29.7,0000.0,0009.30,0004.08,0003.55
2022-07-15 02:32:00,,0831.4,5.00,0.00,29.4,27.3,00.0,38.0,31.2,30.0,0000.0,0009.48,0004.07,0003.54
2022-07-15 02:33:00,,0831.4,5.01,0.00,29.3,26.9,00.0,38.0,31.1,30.5,0000.0,0008.80,0004.06,0003.53
2022-07-15 02:34:00,,0831.4,4.99,0.00,29.3,26.9,00.0,38.0,31.0,30.2,0000.0,0008.72,0004.04,0003.51
2022-07-15 02:35:00,,0831.4,5.00,0.00,29.2,27.0,00.0,38.0,31.0,30.0,0000.0,0008.44,0004.02,0003.49
2022-07-15 02:36:00,,0831.4,5.00,0.00,29.2,27.2,00.0,38.0,31.0,30.2,0000.0,0007.78,0003.99,0003.47
2022-07-15 02:37:00,,0831.4,5.00,0.00,29.2,27.4,00.0,38.0,31.1,30.4,0000.0,0007.67,0003.93,0003.46
2022-07-15 02:38:00,,0831.4,5.01,0.00,29.2,27.6,00.0,38.0,31.1,30.5,0000.0,0007.65,0003.91,0003.44
2022-07-15 02:39:00,,0831.3,5.00,0.00,29.2,27.7,00.0,38.0,31.2,30.7,0000.0,0007.53,0003.88,0003.43
2022-07-15 02:40:00,,0831.3,5.00,0.00,29.3,27.9,00.0,38.0,31.2,30.4,0000.0,0007.46,0003.88,0003.44
2022-07-15 02:41:00,,0831.3,5.00,0.00,29.3,28.1,00.0,38.0,31.3,30.3,0000.0,0007.45,0003.87,0003.45
2022-07-15 02:42:00,,0831.4,4.99,0.00,29.3,28.2,00.0,38.0,31.3,30.5,0000.0,0007.49,0003.89,0003.45
2022-07-15 02:43:00,,0831.4,5.00,0.00,29.4,28.3,00.0,38.1,31.4,30.5,0000.0,0007.16,0003.89,0003.45
2022-07-15 02:44:00,,0831.4,5.01,0.00,29.4,28.4,00.0,38.1,31.4,30.3,0000.0,0007.21,0003.91,0003.45
2022-07-15 02:45:00,,0831.4,5.00,0.00,29.5,28.4,00.0,38.1,31.5,30.9,0000.0,0008.33,0003.92,0003.46
2022-07-15 02:46:00,,0831.3,5.00,0.00,29.4,27.7,00.0,38.0,31.3,31.2,0000.0,0008.52,0003.95,0003.47
2022-07-15 02:47:00,,0831.4,4.99,0.00,29.4,27.1,00.0,38.0,31.2,31.2,0000.0,0008.57,0003.98,0003.49
2022-07-15 02:48:00,,0831.3,5.01,0.00,29.3,27.0,00.0,38.0,31.1,31.2,0000.0,0008.64,0004.02,0003.51
2022-07-15 02:49:00,,0831.3,5.00,0.00,29.3,27.0,00.0,38.0,31.0,31.3,0000.0,0008.55,0004.02,0003.53
2022-07-15 02:50:00,,0831.2,4.99,0.00,29.2,27.2,00.0,38.0,31.0,31.0,0000.0,0008.57,0004.04,0003.54
2022-07-15 02:51:00,,0831.2,5.00,0.00,29.2,27.4,00.0,38.0,31.1,30.9,0000.0,0008.63,0004.07,0003.55
2022-07-15 02:52:00,,0831.2,5.00,0.00,29.2,27.5,00.0,38.0,31.1,31.3,0000.0,0008.71,0004.09,0003.55
2022-07-15 02:53:00,,0831.3,5.00,0.00,29.3,27.7,00.0,38.0,31.2,31.4,0000.0,0008.64,0004.08,0003.55
2022-07-15 02:54:00,,0831.2,4.99,0.00,29.3,27.9,00.0,38.0,31.2,30.5,0000.0,0008.75,0004.12,0003.56
2022-07-15 02:55:00,,0831.2,5.01,0.00,29.3,28.0,00.0,38.0,31.3,28.6,0000.0,0008.38,0004.11,0003.56
2022-07-15 02:56:00,,0831.2,5.00,0.00,29.3,28.1,00.0,38.0,31.3,28.3,0000.0,0007.42,0004.10,0003.56
2022-07-15 02:57:00,,0831.2,5.01,0.00,29.4,28.3,00.0,38.0,31.4,28.2,0000.0,0007.81,0004.05,0003.55
2022-07-15 02:58:00,,0831.2,5.00,0.00,29.4,28.4,00.0,38.1,31.4,28.0,0000.0,0007.93,0004.04,0003.54
2022-07-15 02:59:00,,0831.2,5.00,0.00,29.5,28.4,00.0,38.1,31.4,27.9,0000.0,0008.07,0004.03,0003.53
